CW1459 Weather Reports


time (UTC)temp
F
wind
direction
speed
knots
gust
knots
rain 1hr
in
rain 24hr
in
rain mn
in
humidity
%
barometer
mb
20260906143329 76 335 3.5 7.8 0.00 0.00 0.00 71 1014.7
20260906142333 75 48 1.7 5.2 0.00 0.00 0.00 72 1014.7
20260906141333 73 332 2.6 5.2 0.00 0.00 0.00 74 1014.7
20260906140313 72 351 0.9 3.5 0.00 0.00 0.00 79 1014.6
20260906135319 71 336 1.7 2.6 0.00 0.00 0.00 82 1014.6
20260906134341 69 44 0.0 2.6 0.00 0.00 0.00 83 1014.6
20260906133318 68 302 0.9 2.6 0.00 0.00 0.00 84 1014.7
20260906132337 67 19 0.9 2.6 0.00 0.00 0.00 87 1014.6
20260906131319 66 24 1.7 2.6 0.00 0.00 0.00 91 1014.6
20260906130312 65 338 0.9 1.7 0.00 0.00 0.00 93 1014.7
20260906125319 63 149 0.0 1.7 0.00 0.00 0.00 95 1014.5
20260906124312 62 149 0.9 1.7 0.00 0.00 0.00 96 1014.5
20260906123312 61 149 0.0 0.9 0.00 0.00 0.00 96 1014.4
20260906122335 61 149 0.0 1.7 0.00 0.00 0.00 96 1014.3
20260906121336 60 149 0.0 0.9 0.00 0.00 0.00 96 1014.2
20260906120336 59 149 0.0 0.9 0.00 0.00 0.00 96 1014.0
20260906115316 58 149 0.0 0.0 0.00 0.00 0.00 96 1013.8
20260906114333 58 149 0.0 0.9 0.00 0.00 0.00 95 1013.7
20260906113356 57 149 0.0 0.0 0.00 0.00 0.00 95 1013.5
20260906112324 57 149 0.0 0.9 0.00 0.00 0.00 95 1013.5
20260906111313 57 149 0.0 1.7 0.00 0.00 0.00 95 1013.6
20260906110316 57 60 0.9 0.9 0.00 0.00 0.00 95 1013.5
20260906105313 57 38 0.0 0.9 0.00 0.00 0.00 95 1013.4
20260906104311 57 38 0.0 0.9 0.00 0.00 0.00 95 1013.3
20260906103336 57 38 0.0 0.9 0.00 0.00 0.00 95 1013.1
20260906102331 57 38 0.0 0.9 0.00 0.00 0.00 94 1013.1
20260906101343 58 38 0.9 0.9 0.00 0.00 0.00 94 1013.0
20260906100311 58 38 0.0 0.9 0.00 0.00 0.00 94 1012.9
20260906095336 58 38 0.9 2.6 0.00 0.00 0.00 94 1012.8
20260906094334 58 33 0.9 1.7 0.00 0.00 0.00 94 1012.7
20260906093317 58 96 0.0 0.9 0.00 0.00 0.00 94 1012.6
20260906092323 58 96 0.0 0.9 0.00 0.00 0.00 94 1012.5
20260906091351 58 96 0.0 0.9 0.00 0.00 0.00 94 1012.5
20260906090333 58 96 0.0 0.0 0.00 0.00 0.00 94 1012.3
20260906085339 58 96 0.0 0.0 0.00 0.00 0.00 94 1012.3
20260906084320 58 96 0.0 0.0 0.00 0.00 0.00 94 1012.3
20260906083333 59 96 0.0 0.0 0.00 0.00 0.00 93 1012.2
20260906082341 59 96 0.0 0.9 0.00 0.00 0.00 93 1012.2
20260906081341 59 96 0.0 0.9 0.00 0.00 0.00 93 1012.3
20260906080316 59 96 0.0 1.7 0.00 0.00 0.00 93 1012.3
20260906075339 59 96 0.0 0.0 0.00 0.00 0.00 93 1012.4
20260906074319 59 96 0.0 0.0 0.00 0.00 0.00 93 1012.2
20260906073340 59 96 0.0 0.0 0.00 0.00 0.00 93 1012.0
20260906072340 59 96 0.0 0.0 0.00 0.00 0.00 92 1012.0
20260906071319 60 96 0.9 1.7 0.00 0.00 0.00 92 1012.0
20260906070315 60 96 0.0 0.9 0.00 0.00 0.00 92 1011.9
20260906065401 60 96 0.0 0.9 0.00 0.00 0.00 92 1012.0
20260906064316 60 96 0.0 1.7 0.00 0.00 0.00 92 1012.0
20260906063319 61 96 0.9 1.7 0.00 0.00 0.00 91 1011.8
20260906062322 61 96 0.0 0.9 0.00 0.00 0.00 91 1011.9
20260906061315 61 96 0.9 1.7 0.00 0.00 0.00 91 1011.9
20260906060318 62 96 0.9 1.7 0.00 0.00 0.00 90 1012.0
20260906055333 62 96 1.7 1.7 0.00 0.00 0.00 90 1012.1
20260906054316 62 42 0.0 1.7 0.00 0.00 0.00 90 1012.1
20260906053317 63 42 0.9 1.7 0.00 0.00 0.00 89 1012.0
20260906052341 63 87 0.9 1.7 0.00 0.00 0.00 89 1012.0
20260906051337 63 87 0.9 2.6 0.00 0.00 0.00 89 1012.0
20260906050318 64 17 0.9 2.6 0.00 0.00 0.00 88 1012.0
20260906045352 64 306 0.9 1.7 0.00 0.00 0.00 88 1012.1
20260906044339 64 306 0.0 0.9 0.00 0.00 0.00 88 1012.2
20260906043315 64 306 0.0 1.7 0.00 0.00 0.00 87 1012.3
20260906042341 64 306 0.0 1.7 0.00 0.00 0.00 87 1012.3
20260906041316 65 306 0.9 1.7 0.00 0.00 0.00 87 1012.2
20260906040338 65 306 0.9 1.7 0.00 0.00 0.00 87 1012.1
20260906035355 65 306 0.0 1.7 0.00 0.00 0.00 86 1012.2
20260906034342 65 306 0.0 1.7 0.00 0.00 0.00 85 1012.3
20260906033341 66 306 0.0 0.9 0.00 0.00 0.00 85 1012.3
20260906032340 66 306 0.0 1.7 0.00 0.00 0.00 83 1012.2
20260906031338 67 306 0.0 2.6 0.00 0.00 0.00 82 1012.1
20260906030322 68 117 0.9 2.6 0.00 0.00 0.00 81 1012.1
20260906025317 68 28 0.0 1.7 0.00 0.00 0.00 79 1012.0
20260906024339 68 28 0.9 2.6 0.00 0.00 0.00 79 1011.9
20260906023341 69 28 1.7 2.6 0.00 0.00 0.00 77 1011.9
20260906022335 70 70 0.9 2.6 0.00 0.00 0.00 76 1011.8
20260906021336 71 24 0.9 1.7 0.00 0.00 0.00 74 1011.7
20260906020318 72 44 0.9 5.2 0.00 0.00 0.00 71 1011.7
20260906015354 72 112 3.5 8.7 0.00 0.00 0.00 71 1011.6
20260906014316 72 136 2.6 6.1 0.00 0.00 0.00 72 1011.5
20260906013316 72 123 1.7 6.1 0.00 0.00 0.00 72 1011.4
20260906012339 72 98 1.7 6.1 0.00 0.00 0.00 73 1011.3
20260906011332 72 136 2.6 7.8 0.00 0.00 0.00 74 1011.3
20260906010315 72 120 2.6 6.1 0.00 0.00 0.00 75 1011.2
20260906005330 72 128 1.7 5.2 0.00 0.00 0.00 76 1011.0
20260906004400 72 130 1.7 3.5 0.00 0.00 0.00 77 1011.0
20260906003337 71 103 1.7 3.5 0.00 0.00 0.00 78 1011.0
20260906002331 72 22 0.9 2.6 0.00 0.00 0.00 78 1010.9
20260906001400 72 49 0.9 2.6 0.00 0.00 0.00 76 1010.7
20260906000340 73 122 0.9 2.6 0.00 0.00 0.00 74 1010.6
20260905235319 73 96 0.9 3.5 0.00 0.00 0.00 74 1010.5
20260905234331 74 85 0.9 2.6 0.00 0.00 0.00 73 1010.4
20260905233335 75 113 0.9 2.6 0.00 0.00 0.00 73 1010.5
20260905232337 75 93 0.9 2.6 0.00 0.00 0.00 73 1010.4
20260905231315 77 89 0.9 1.7 0.00 0.00 0.00 71 1010.4
20260905230337 78 351 0.0 1.7 0.00 0.00 0.00 67 1010.3
20260905225319 78 26 1.7 2.6 0.00 0.00 0.00 66 1010.1
20260905224331 78 15 0.9 1.7 0.00 0.00 0.00 69 1010.0
20260905223338 77 46 0.0 2.6 0.00 0.00 0.00 69 1010.0
20260905222338 78 22 2.6 7.0 0.00 0.00 0.00 66 1009.9
20260905221317 79 16 2.6 7.0 0.00 0.00 0.00 63 1009.7
20260905220339 81 351 3.5 8.7 0.00 0.00 0.00 63 1009.7
20260905215313 81 333 3.5 8.7 0.00 0.00 0.00 63 1009.5
20260905214318 81 360 4.3 10.4 0.00 0.00 0.00 63 1009.5
20260905213326 81 9 3.5 7.0 0.00 0.00 0.00 63 1009.5
20260905212335 82 329 3.5 8.7 0.00 0.00 0.00 62 1009.4
20260905211318 82 333 2.6 9.6 0.00 0.00 0.00 64 1009.3
20260905210320 81 360 3.5 7.0 0.00 0.00 0.00 65 1009.3
20260905205331 81 351 3.5 7.0 0.00 0.00 0.00 63 1009.4
20260905204317 82 325 4.3 7.8 0.00 0.00 0.00 64 1009.4
20260905203318 82 298 1.7 7.0 0.00 0.00 0.00 62 1009.5
20260905202317 82 346 4.3 7.0 0.00 0.00 0.00 65 1009.6
20260905201336 81 342 2.6 7.0 0.00 0.00 0.00 65 1009.6
20260905200337 81 30 2.6 8.7 0.00 0.00 0.00 62 1009.7
20260905195337 82 10 3.5 5.2 0.00 0.00 0.00 64 1009.6
20260905194314 80 328 2.6 5.2 0.00 0.00 0.00 65 1009.7
20260905193314 81 317 2.6 6.1 0.00 0.00 0.00 64 1009.9
20260905192313 82 339 3.5 7.0 0.00 0.00 0.00 62 1010.0
20260905191337 82 24 3.5 8.7 0.00 0.00 0.00 60 1010.1
20260905190340 83 329 1.7 7.8 0.00 0.00 0.00 64 1010.1
20260905185318 83 44 1.7 12.2 0.00 0.00 0.00 67 1010.0
20260905184358 83 343 4.3 9.6 0.00 0.00 0.00 64 1010.1
20260905183315 83 350 4.3 7.0 0.00 0.00 0.00 64 1010.3
20260905182401 82 338 1.7 8.7 0.00 0.00 0.00 63 1010.3
20260905181332 82 14 5.2 8.7 0.00 0.00 0.00 68 1010.5
20260905180334 82 313 1.7 7.8 0.00 0.00 0.00 70 1010.5
20260905175316 81 25 1.7 4.3 0.00 0.00 0.00 71 1010.5
20260905174332 81 82 0.9 7.0 0.00 0.00 0.00 69 1010.7
20260905173313 80 323 3.5 5.2 0.00 0.00 0.00 73 1010.8
20260905172331 80 337 2.6 7.0 0.00 0.00 0.00 74 1010.9
20260905171332 80 349 2.6 7.0 0.00 0.00 0.00 74 1011.0
20260905170336 79 329 0.9 5.2 0.00 0.00 0.00 71 1011.0
20260905165315 80 5 1.7 8.7 0.00 0.00 0.00 73 1011.1
20260905164318 80 344 2.6 5.2 0.00 0.00 0.00 74 1011.2
20260905163400 79 350 2.6 5.2 0.00 0.00 0.00 75 1011.2
20260905162331 78 15 3.5 5.2 0.00 0.00 0.00 74 1011.3
20260905161314 78 5 3.5 7.8 0.00 0.00 0.00 76 1011.3
20260905160357 79 309 2.6 7.0 0.00 0.00 0.00 75 1011.5
20260905155338 79 5 2.6 7.0 0.00 0.00 0.00 76 1011.5
20260905154338 78 294 1.7 4.3 0.00 0.00 0.00 75 1011.6
20260905153334 78 326 0.9 3.5 0.00 0.00 0.00 75 1011.7
20260905152312 77 349 1.7 3.5 0.00 0.00 0.00 79 1011.8
20260905151339 77 5 1.7 3.5 0.00 0.00 0.00 79 1011.9
20260905150315 77 347 2.6 4.3 0.00 0.00 0.00 81 1012.0
20260905145319 76 323 1.7 4.3 0.00 0.00 0.00 82 1012.1
20260905144334 76 345 1.7 3.5 0.00 0.00 0.00 85 1011.9